Location: Budapest
(47.4979°N, 19.0402°E)
Time: 08:57:25
(UTC+01:00)

Vanguard 1 Rocket - All Passes

Search period start: 24 February 2018 00:00
Search period end: 06 March 2018 00:00
Orbit: 655 x 4222 km, 34.3° (Epoch: 23 February)

Date Brightness Start Highest point End Pass type
(mag) Time Alt. Az. Time Alt. Az. Time Alt. Az.
24 Feb - 02:17:02 10° W 02:40:43 49° SSW 03:00:54 10° SE visible
24 Feb - 04:50:35 10° W 05:08:21 25° SW 05:22:16 10° S visible
24 Feb - 20:12:45 10° SSW 20:27:01 35° SE 20:47:33 10° E visible
24 Feb - 22:36:01 10° WSW 22:55:26 55° SSE 23:20:12 10° E visible
25 Feb - 01:03:24 10° W 01:26:32 56° SSW 01:49:09 10° ESE visible
25 Feb - 03:34:26 10° W 03:55:58 36° SW 04:13:22 10° SSE visible
25 Feb - 06:17:59 10° WSW 06:21:16 10° WSW 06:24:22 10° SW daylight
25 Feb - 19:04:17 10° S 19:15:19 23° SE 19:30:46 10° E visible
25 Feb - 21:24:58 10° SW 21:41:44 49° SSE 22:05:37 10° E visible
25 Feb - 23:50:38 10° WSW 00:12:02 58° S 00:36:23 10° ESE visible
26 Feb - 02:19:46 10° W 02:42:41 45° SSW 03:02:59 10° SE visible
26 Feb - 04:54:20 10° W 05:09:54 21° SW 05:22:50 10° SSW visible
26 Feb - 17:59:12 10° SE 18:04:29 12° ESE 18:10:42 10° E visible
26 Feb - 20:14:50 10° SSW 20:28:56 39° SE 20:50:14 10° E visible
26 Feb - 22:38:41 10° WSW 22:57:40 57° S 23:22:40 10° ESE visible
27 Feb - 01:06:09 10° W 01:28:40 53° SSW 01:51:24 10° SE visible
27 Feb - 03:37:29 10° W 03:57:41 31° SW 04:14:47 10° S visible
27 Feb - 19:05:49 10° S 19:17:07 28° SE 19:33:54 10° E visible
27 Feb - 21:27:31 10° SW 21:43:53 52° SSE 22:08:05 10° E visible
27 Feb - 23:53:24 10° WSW 00:14:16 57° S 00:38:44 10° ESE visible
28 Feb - 02:22:37 10° W 02:44:35 41° SSW 03:04:48 10° SSE visible
28 Feb - 04:59:00 10° W 05:11:22 16° SW 05:22:20 10° SSW visible
28 Feb - 17:58:49 10° SSE 18:06:11 16° SE 18:15:50 10° E visible
28 Feb - 20:17:11 10° SW 20:30:59 43° SSE 20:52:46 10° E visible
28 Feb - 22:41:26 10° WSW 22:59:58 57° S 23:25:03 10° ESE visible
01 Mar - 01:08:58 10° W 01:30:45 49° SSW 01:53:27 10° SE visible
01 Mar - 03:40:53 10° W 03:59:18 26° SW 04:15:42 10° S visible
01 Mar - 19:07:46 10° SSW 19:19:03 32° SE 19:36:44 10° E visible
01 Mar - 21:30:13 10° WSW 21:46:10 54° SSE 22:10:29 10° E visible
01 Mar - 23:56:15 10° W 00:16:30 55° SSW 00:40:56 10° SE visible
02 Mar - 02:25:39 10° W 02:46:24 36° SW 03:06:17 10° SSE visible
02 Mar - 05:06:04 10° WSW 05:12:50 12° WSW 05:19:16 10° SW visible
02 Mar - 17:59:48 10° S 18:08:00 20° SE 18:19:40 10° E visible
02 Mar - 20:19:44 10° SW 20:33:11 46° SSE 20:55:12 10° E visible
02 Mar - 22:44:18 10° WSW 23:02:18 57° S 23:27:20 10° ESE visible
03 Mar - 01:11:54 10° W 01:32:47 45° SSW 01:55:16 10° SE visible
03 Mar - 03:44:48 10° W 04:00:54 21° SW 04:15:53 10° S visible
03 Mar - 19:10:02 10° SSW 19:21:08 36° SE 19:39:22 10° E visible
03 Mar - 21:33:02 10° WSW 21:48:32 55° S 22:12:48 10° ESE visible
03 Mar - 23:59:10 10° W 00:18:44 51° SSW 00:42:57 10° SE visible
04 Mar - 02:28:54 10° W 02:48:10 31° SW 03:07:20 10° SSE visible
04 Mar - 18:01:27 10° S 18:09:59 24° SE 18:22:56 10° E visible
04 Mar - 20:22:26 10° SW 20:35:30 49° SSE 20:57:34 10° E visible
04 Mar - 22:47:14 10° WSW 23:04:40 55° S 23:29:28 10° ESE visible
05 Mar - 01:14:57 10° W 01:34:47 40° SSW 01:56:46 10° SSE visible
05 Mar - 03:49:41 10° W 04:02:29 17° SW 04:14:52 10° SSW visible
05 Mar - 16:55:33 10° SE 16:59:34 12° ESE 17:04:25 10° ESE daylight
05 Mar - 19:12:33 10° SSW 19:23:22 39° SSE 19:41:53 10° E visible
05 Mar - 21:35:57 10° WSW 21:50:58 55° S 22:15:01 10° ESE visible
